Location: Bonaustraße
(48.4603°N, 11.9280°E)
Time: 21:39:15
(UTC+02:00)

AO-92 - Pass Details

Date: 03 August 2021
Orbit: 484 x 494 km, 97.4° (Epoch: 17 September)

Event Time Altitude Azimuth Distance (km) Brightness Sun altitude
Exits shadow 00:01:38 19° 251° (WSW) 1,221 ? -21.8°
Maximum altitude 00:02:20 20° 267° (W) 1,183 ? -21.9°
Drops below altitude 10° 00:05:02 10° 316° (NW) 1,676 ? -22.0°
Sets 00:07:33 0° 334° (NNW) 2,564 ? -22.1°
